Location: Tel Aviv
(32.0670°N, 34.7670°E)
Time: 11:41:36
(UTC+03:00)

Transit 2A - Pass Details

Date: 23 January 2022
Orbit: 598 x 960 km, 66.7° (Epoch: 20 May)

Event Time Altitude Azimuth Distance (km) Brightness Sun altitude
Rises 10:51:57 0° 199° (SSW) 3,397 10.0 36.5°
Reaches altitude 10° 10:54:20 10° 198° (SSW) 2,512 9.5 36.7°
Maximum altitude 11:00:13 77° 113° (ESE) 948 7.3 37.0°
Drops below altitude 10° 11:06:31 10° 29° (NNE) 2,683 8.5 37.3°
Sets 11:09:08 0° 28° (NNE) 3,643 9.1 37.5°
